Zurück zum Katalog

STARLINK-37929

AktivKommunikationSSO
NORAD 69557·PAYLOAD·🇺🇸 United States

Gestartet Jun 15, 2026 von Vandenberg Space Force Base

Loading…

Nächste Überflüge (nächste 24 Stunden)

TLE

AktuellSource: CelesTrak SupGP

Epoche: Sep 15, 2026, 03:25 UTC

1 69557C 26135M   26258.14284722 -.00041045  00000+0 -12742-2 0  2583
2 69557  97.2834 285.9072 0001286  89.2522 115.3951 15.33459541    11

Verfolge STARLINK-37929 in Echtzeit mit AllMySat

Download on the App Store